GW2055 Weather Reports


Display with metric or nautical units.
time (UTC)temp
F
wind
direction
speed
MPH
gust
MPH
rain 1hr
in
rain 24hr
in
rain mn
in
humidity
%
barometer
mb
20260506050103 49 15 1.0 5.0 0.00 0.00 0.00 78 1014.2
20260506044608 48 27 2.0 7.0 0.00 0.00 0.00 77 1014.3
20260506043058 49 0 1.0 7.0 0.00 0.00 0.00 78 1014.1
20260506041609 49 315 2.0 8.0 0.00 0.00 0.00 77 1014.4
20260506040101 49 11 1.0 8.0 0.00 0.00 0.00 77 1014.2
20260506034601 49 0 1.0 6.0 0.00 0.00 0.00 75 1014.4
20260506033057 49 17 1.0 7.0 0.00 0.00 0.00 74 1014.0
20260506031559 50 19 1.0 5.0 0.00 0.00 0.00 71 1013.6
20260506030108 50 23 0.0 5.0 0.00 0.00 0.00 73 1013.4
20260506024613 50 13 1.0 5.0 0.00 0.00 0.00 74 1012.9
20260506023100 50 0 0.0 4.0 0.00 0.00 0.00 76 1012.8
20260506021558 50 5 1.0 6.0 0.00 0.00 0.00 74 1012.0
20260506020123 50 334 2.0 5.0 0.00 0.00 0.00 72 1012.1
20260506014558 50 49 1.0 8.0 0.00 0.00 0.00 72 1012.3
20260506013055 50 73 1.0 10.0 0.00 0.00 0.00 72 1011.8
20260506011601 51 290 2.0 8.0 0.00 0.00 0.00 72 1011.5
20260506010103 51 70 2.0 10.0 0.00 0.00 0.00 72 1011.3
20260506004558 51 320 3.0 11.0 0.00 0.00 0.00 72 1011.0
20260506003056 51 24 2.0 10.0 0.00 0.00 0.00 72 1010.8
20260506001606 51 32 2.0 10.0 0.00 0.00 0.00 73 1010.8
20260506000125 51 0 2.0 9.0 0.00 0.00 0.00 72 1010.9
20260505234615 51 137 2.0 10.0 0.00 0.00 0.00 72 1011.0
20260505233058 51 51 2.0 11.0 0.00 0.00 0.00 74 1010.9
20260505231601 51 52 1.0 9.0 0.00 0.00 0.00 75 1010.8
20260505230104 52 46 2.0 9.0 0.00 0.00 0.00 73 1010.5
20260505224613 52 58 2.0 8.0 0.00 0.00 0.00 72 1010.3
20260505223105 52 317 3.0 13.0 0.00 0.00 0.00 71 1010.2
20260505221601 52 159 3.0 9.0 0.00 0.00 0.00 69 1010.1
20260505220107 53 36 2.0 10.0 0.00 0.00 0.00 70 1010.1
20260505214605 53 65 3.0 9.0 0.00 0.00 0.00 69 1009.7
20260505213056 53 23 2.0 11.0 0.00 0.00 0.00 70 1009.8
20260505211631 53 30 2.0 14.0 0.00 0.00 0.00 69 1009.9
20260505210100 54 17 3.0 9.0 0.00 0.00 0.00 69 1009.8
20260505204605 54 23 4.0 10.0 0.00 0.00 0.00 68 1009.5
20260505203058 54 73 3.0 12.0 0.00 0.00 0.00 67 1009.9
20260505201559 54 19 3.0 11.0 0.00 0.00 0.00 67 1009.6
20260505200059 55 360 2.0 8.0 0.00 0.00 0.00 68 1009.5
20260505194558 55 63 1.0 9.0 0.00 0.00 0.00 68 1009.8
20260505193056 54 332 3.0 13.0 0.00 0.00 0.00 68 1009.6
20260505191604 55 347 3.0 10.0 0.00 0.00 0.00 67 1009.4
20260505190114 55 46 2.0 9.0 0.00 0.00 0.00 67 1009.2
20260505184557 55 327 2.0 9.0 0.00 0.00 0.00 66 1009.3
20260505183059 54 299 3.0 13.0 0.00 0.00 0.00 68 1009.0
20260505181640 55 0 3.0 13.0 0.00 0.00 0.00 69 1008.8
20260505180105 55 5 3.0 10.0 0.00 0.00 0.00 70 1008.8
20260505174556 55 360 3.0 13.0 0.00 0.00 0.00 69 1008.6
20260505173058 55 296 2.0 10.0 0.00 0.00 0.00 71 1008.5
20260505171603 55 306 1.0 11.0 0.00 0.00 0.00 72 1008.4
20260505170057 55 15 3.0 10.0 0.00 0.00 0.00 76 1008.1
20260505164558 55 360 3.0 11.0 0.00 0.00 0.00 78 1008.0
20260505163058 55 61 1.0 9.0 0.00 0.00 0.00 80 1007.8
20260505161557 55 40 2.0 11.0 0.00 0.00 0.00 80 1007.4
20260505153103 54 50 3.0 9.0 0.00 0.00 0.00 83 1007.2
20260505151602 55 64 1.0 9.0 0.00 0.00 0.00 83 1007.0
20260505150111 55 360 2.0 10.0 0.00 0.00 0.00 83 1007.2
20260505140109 57 344 3.0 11.0 0.00 0.00 0.00 81 1005.7
20260505124557 61 0 1.0 6.0 0.00 0.00 0.00 81 1005.1
20260505123101 61 71 2.0 10.0 0.00 0.00 0.00 81 1005.0
20260505121559 63 49 2.0 8.0 0.00 0.00 0.00 82 1004.5
20260505120117 63 36 0.0 3.0 0.00 0.00 0.00 83 1004.2
20260505114600 63 64 1.0 6.0 0.00 0.00 0.00 83 1004.0
20260505113101 63 5 0.0 4.0 0.00 0.00 0.00 83 1003.7
20260505111557 63 0 1.0 5.0 0.00 0.00 0.00 82 1003.8
20260505110113 64 0 1.0 5.0 0.00 0.00 0.00 82 1003.6
20260505101604 65 84 1.0 9.0 0.00 0.00 0.00 79 1002.5
20260505100056 65 82 2.0 7.0 0.00 0.00 0.00 80 1002.5
20260505094558 65 69 2.0 10.0 0.00 0.00 0.00 80 1002.7
20260505093056 65 52 2.0 9.0 0.00 0.00 0.00 79 1002.8
20260505091559 65 68 2.0 7.0 0.00 0.00 0.00 78 1002.8
20260505090058 65 61 1.0 7.0 0.00 0.00 0.00 76 1002.7
20260505084605 65 77 2.0 7.0 0.00 0.00 0.00 76 1002.6
20260505083109 65 59 0.0 6.0 0.00 0.00 0.00 76 1002.6
20260505081556 65 71 1.0 3.0 0.00 0.00 0.00 76 1002.4
20260505080104 65 0 0.0 4.0 0.00 0.00 0.00 76 1002.5
20260505074556 64 0 2.0 5.0 0.00 0.00 0.00 77 1002.5
20260505073103 64 136 2.0 5.0 0.00 0.00 0.00 76 1002.6
20260505071559 65 137 0.0 7.0 0.00 0.00 0.00 75 1003.4
20260505070106 65 75 2.0 11.0 0.00 0.00 0.00 75 1003.2
20260505064639 65 80 1.0 6.0 0.00 0.00 0.00 75 1003.5
20260505063109 66 86 2.0 7.0 0.00 0.00 0.00 72 1003.7
20260505061600 67 57 1.0 7.0 0.00 0.00 0.00 69 1003.8
20260505060101 67 0 2.0 5.0 0.00 0.00 0.00 69 1004.2